Ortonville, MN

6:22 PM CST on February 24, 2017 (GMT -0600)
Ortonville Municipal-Martinson

Weather History for KVVV - March, 2014

Change the Weather History Date:

Saturday, March 22, 2014

  Actual Average (KAQP) Record (KAQP)
Temperature  
Mean Temperature 16 °F -  
Max Temperature 23 °F 38 °F 62 °F (2003)
Min Temperature 8 °F 20 °F -2 °F (2013)
Degree Days  
Heating Degree Days 50    
Moisture  
Dew Point 4 °F    
Average Humidity 64    
Maximum Humidity 79    
Minimum Humidity 43    
Precipitation  
Precipitation 0.00 in - - ()
Sea Level Pressure  
Sea Level Pressure 30.46 in    
Wind  
Wind Speed 13 mph (NNW)    
Max Wind Speed 20 mph    
Max Gust Speed 26 mph    
Visibility 10 miles    
Events Snow    
Averages and records for this station are not official NWS values.
T = Trace of Precipitation, MM = Missing Value Source: NWS Daily Summary

Daily Weather History Graph

Daily Weather History Graph

Search for Another Location

Airport or City:

Trip Planner

Search our weather history database for the weather conditions in past years. The results will help you decide how hot, cold, wet, or windy it might be!

Date:

Astronomy

Mar. 22, 2014 Rise Set
Actual Time 7:24 AM CDT 7:40 PM CDT
Civil Twilight 6:55 AM CDT 8:10 PM CDT
Nautical Twilight 6:20 AM CDT 8:45 PM CDT
Astronomical Twilight 5:45 AM CDT 9:20 PM CDT
Moon 1:14 AM CDT (3/22) 10:55 AM CDT (3/22)
Length of Visible Light 13h 14m
Length of Day
12h 15m
Waning Gibbous, 65% of the Moon is Illuminated
Mar 22
Waning Gibbous
Mar 23
Last Quarter
Mar 30
New
Apr 7
First Quarter
Apr 15
Full

Hourly Weather History & Observations

Time (CDT) Temp. Windchill Dew Point Humidity Pressure Visibility Wind Dir Wind Speed Gust Speed Precip Events Conditions
12:13 AM 15.8 °F 2.7 °F 10.4 °F 79% 30.34 in 5.0 mi NNW 11.5 mph - N/A Snow Light Snow
12:34 AM 15.8 °F -0.2 °F 10.4 °F 79% 30.34 in 5.0 mi NNW 17.3 mph 21.9 mph N/A Snow Light Snow
12:54 AM 15.8 °F -0.2 °F 8.6 °F 73% 30.35 in 10.0 mi North 17.3 mph - N/A   Mostly Cloudy
1:13 AM 14.0 °F -3.0 °F 6.8 °F 73% 30.35 in 10.0 mi North 18.4 mph 23.0 mph N/A   Scattered Clouds
1:34 AM 14.0 °F -0.8 °F 6.8 °F 73% 30.36 in 7.0 mi NNW 13.8 mph - N/A Snow Light Snow
1:54 AM 14.0 °F -1.4 °F 8.6 °F 79% 30.36 in 2.5 mi North 15.0 mph - N/A Snow Light Snow
2:13 AM 14.0 °F -1.4 °F 8.6 °F 79% 30.37 in 3.0 mi North 15.0 mph - N/A Snow Light Snow
2:34 AM 14.0 °F -0.8 °F 8.6 °F 79% 30.37 in 4.0 mi NNW 13.8 mph 21.9 mph N/A Snow Light Snow
2:54 AM 12.2 °F -4.3 °F 6.8 °F 79% 30.37 in 10.0 mi North 16.1 mph - N/A   Scattered Clouds
3:13 AM 12.2 °F -4.8 °F 6.8 °F 79% 30.38 in 10.0 mi North 17.3 mph 20.7 mph N/A   Clear
3:34 AM 10.4 °F -8.2 °F 5.0 °F 79% 30.38 in 10.0 mi North 19.6 mph 24.2 mph N/A   Clear
3:54 AM 10.4 °F -7.7 °F 3.2 °F 73% 30.39 in 10.0 mi NNW 18.4 mph 23.0 mph N/A   Clear
4:13 AM 10.4 °F -5.4 °F 3.2 °F 73% 30.39 in 10.0 mi NNW 13.8 mph 24.2 mph N/A   Clear
4:34 AM 10.4 °F -5.4 °F 3.2 °F 73% 30.40 in 10.0 mi NNW 13.8 mph 21.9 mph N/A   Clear
4:54 AM 8.6 °F -10.0 °F 1.4 °F 73% 30.40 in 10.0 mi NNW 18.4 mph 26.5 mph N/A   Clear
5:14 AM 8.6 °F -7.0 °F 1.4 °F 73% 30.41 in 10.0 mi NNW 12.7 mph 18.4 mph N/A   Clear
5:34 AM 8.6 °F -8.3 °F 1.4 °F 73% 30.41 in 10.0 mi NNW 15.0 mph - N/A   Clear
5:53 AM 8.6 °F -9.5 °F -0.4 °F 67% 30.42 in 10.0 mi NNW 17.3 mph 24.2 mph N/A   Clear
6:14 AM 8.6 °F -10.0 °F -0.4 °F 67% 30.42 in 10.0 mi North 18.4 mph - N/A   Clear
6:34 AM 8.6 °F -7.7 °F -0.4 °F 67% 30.43 in 10.0 mi North 13.8 mph 24.2 mph N/A   Clear
6:53 AM 8.6 °F -7.0 °F -0.4 °F 67% 30.44 in 10.0 mi NNW 12.7 mph - N/A   Clear
7:14 AM 8.6 °F -4.7 °F -0.4 °F 67% 30.44 in 10.0 mi NNW 9.2 mph - N/A   Clear
7:34 AM 8.6 °F -3.7 °F -0.4 °F 67% 30.45 in 10.0 mi NNW 8.1 mph - N/A   Clear
7:53 AM 8.6 °F -2.6 °F -0.4 °F 67% 30.46 in 10.0 mi NNW 6.9 mph - N/A   Clear
8:14 AM 8.6 °F -4.7 °F 1.4 °F 73% 30.46 in 10.0 mi NNW 9.2 mph - N/A   Clear
8:34 AM 10.4 °F -4.8 °F 1.4 °F 67% 30.46 in 10.0 mi NNW 12.7 mph - N/A   Clear
8:53 AM 10.4 °F -5.4 °F 1.4 °F 67% 30.47 in 10.0 mi NNW 13.8 mph - N/A   Clear
9:14 AM 12.2 °F -5.8 °F 1.4 °F 62% 30.47 in 10.0 mi North 19.6 mph - N/A   Clear
9:34 AM 12.2 °F -3.1 °F 1.4 °F 62% 30.48 in 10.0 mi North 13.8 mph - N/A   Scattered Clouds
9:53 AM 12.2 °F -2.5 °F 1.4 °F 62% 30.49 in 10.0 mi NNW 12.7 mph 17.3 mph N/A   Scattered Clouds
10:14 AM 14.0 °F -2.0 °F 1.4 °F 57% 30.49 in 10.0 mi North 16.1 mph 23.0 mph N/A   Clear
10:34 AM 14.0 °F -0.8 °F 1.4 °F 57% 30.49 in 10.0 mi North 13.8 mph 18.4 mph N/A   Scattered Clouds
10:53 AM 15.8 °F -0.6 °F 1.4 °F 53% 30.49 in 10.0 mi NNW 18.4 mph - N/A   Scattered Clouds
11:14 AM 15.8 °F -0.6 °F 1.4 °F 53% 30.50 in 10.0 mi North 18.4 mph 23.0 mph N/A   Scattered Clouds
11:34 AM 17.6 °F 3.7 °F 3.2 °F 53% 30.50 in 10.0 mi NNW 13.8 mph 19.6 mph N/A   Mostly Cloudy
11:53 AM 17.6 °F 3.2 °F 1.4 °F 49% 30.51 in 10.0 mi NNW 15.0 mph 18.4 mph N/A   Mostly Cloudy
12:14 PM 17.6 °F 3.7 °F 1.4 °F 49% 30.50 in 10.0 mi NNW 13.8 mph 19.6 mph N/A   Mostly Cloudy
12:34 PM 17.6 °F 6.4 °F 3.2 °F 53% 30.50 in 10.0 mi NW 9.2 mph 23.0 mph N/A   Mostly Cloudy
12:54 PM 17.6 °F 5.0 °F 1.4 °F 49% 30.50 in 10.0 mi North 11.5 mph 19.6 mph N/A   Mostly Cloudy
1:14 PM 19.4 °F 6.6 °F 1.4 °F 46% 30.50 in 10.0 mi North 12.7 mph 17.3 mph N/A   Mostly Cloudy
1:34 PM 19.4 °F 6.0 °F 1.4 °F 46% 30.50 in 10.0 mi NW 13.8 mph 20.7 mph N/A   Mostly Cloudy
1:54 PM 19.4 °F 6.6 °F 3.2 °F 49% 30.49 in 10.0 mi NNW 12.7 mph 18.4 mph N/A   Mostly Cloudy
2:13 PM 21.2 °F 8.9 °F 3.2 °F 46% 30.49 in 10.0 mi NNW 12.7 mph 18.4 mph N/A   Overcast
2:34 PM 19.4 °F 6.0 °F 3.2 °F 49% 30.48 in 10.0 mi North 13.8 mph - N/A   Mostly Cloudy
2:54 PM 21.2 °F 8.3 °F 3.2 °F 46% 30.48 in 10.0 mi North 13.8 mph 19.6 mph N/A   Overcast
3:13 PM 21.2 °F 7.8 °F 3.2 °F 46% 30.48 in 10.0 mi NNW 15.0 mph - N/A   Mostly Cloudy
3:34 PM 23.0 °F 9.2 °F 3.2 °F 43% 30.48 in 10.0 mi NNW 17.3 mph 20.7 mph N/A   Mostly Cloudy
3:54 PM 21.2 °F 7.3 °F 3.2 °F 46% 30.48 in 10.0 mi North 16.1 mph - N/A   Mostly Cloudy
4:14 PM 21.2 °F 8.3 °F 5.0 °F 50% 30.47 in 10.0 mi NNW 13.8 mph - N/A   Mostly Cloudy
4:33 PM 21.2 °F 7.8 °F 3.2 °F 46% 30.47 in 10.0 mi NW 15.0 mph 19.6 mph N/A   Mostly Cloudy
4:54 PM 21.2 °F 10.9 °F 5.0 °F 50% 30.47 in 10.0 mi North 9.2 mph 19.6 mph N/A   Mostly Cloudy
5:13 PM 21.2 °F 8.9 °F 5.0 °F 50% 30.48 in 10.0 mi NNW 12.7 mph 17.3 mph N/A   Mostly Cloudy
5:34 PM 19.4 °F 6.0 °F 5.0 °F 54% 30.47 in 10.0 mi NNW 13.8 mph 17.3 mph N/A   Mostly Cloudy
5:54 PM 19.4 °F 6.0 °F 5.0 °F 54% 30.48 in 10.0 mi NNW 13.8 mph 17.3 mph N/A   Mostly Cloudy
6:14 PM 19.4 °F 6.6 °F 5.0 °F 54% 30.48 in 10.0 mi North 12.7 mph 18.4 mph N/A   Mostly Cloudy
6:33 PM 19.4 °F 7.2 °F 6.8 °F 58% 30.48 in 10.0 mi NNW 11.5 mph - N/A   Mostly Cloudy
6:54 PM 19.4 °F 6.6 °F 6.8 °F 58% 30.48 in 10.0 mi North 12.7 mph - N/A   Mostly Cloudy
6:59 PM 19.4 °F 7.9 °F 6.8 °F 58% 30.48 in 10.0 mi North 10.4 mph - N/A   Mostly Cloudy
7:34 PM 17.6 °F 6.4 °F 6.8 °F 63% 30.48 in 10.0 mi North 9.2 mph - N/A   Mostly Cloudy
7:53 PM 17.6 °F 5.7 °F 6.8 °F 63% 30.49 in 10.0 mi North 10.4 mph - N/A   Scattered Clouds
8:14 PM 17.6 °F 8.2 °F 6.8 °F 63% 30.49 in 10.0 mi North 6.9 mph - N/A   Scattered Clouds
8:33 PM 15.8 °F 6.1 °F 6.8 °F 68% 30.50 in 10.0 mi North 6.9 mph - N/A   Clear
8:54 PM 15.8 °F 7.2 °F 6.8 °F 68% 30.50 in 10.0 mi NNE 5.8 mph - N/A   Clear
9:14 PM 15.8 °F 8.6 °F 6.8 °F 68% 30.51 in 10.0 mi NNE 4.6 mph - N/A   Clear
9:33 PM 15.8 °F 8.6 °F 6.8 °F 68% 30.51 in 10.0 mi North 4.6 mph - N/A   Clear
9:54 PM 14.0 °F 5.1 °F 6.8 °F 73% 30.51 in 10.0 mi NNE 5.8 mph - N/A   Clear
10:14 PM 14.0 °F - 6.8 °F 73% 30.51 in 10.0 mi Calm Calm - N/A   Clear
10:33 PM 12.2 °F - 6.8 °F 79% 30.51 in 10.0 mi Calm Calm - N/A   Clear
10:54 PM 12.2 °F 6.1 °F 6.8 °F 79% 30.52 in 10.0 mi North 3.5 mph - N/A   Clear
11:14 PM 12.2 °F 6.1 °F 6.8 °F 79% 30.52 in 10.0 mi North 3.5 mph - N/A   Clear
11:33 PM 12.2 °F 6.1 °F 6.8 °F 79% 30.52 in 10.0 mi North 3.5 mph - N/A   Clear
11:54 PM 12.2 °F 6.1 °F 6.8 °F 79% 30.52 in 10.0 mi NNW 3.5 mph - N/A   Clear